This is the latest recevied weather packets stored in our database for station/object N5ZP. If no packets are shown the sender has not sent any weather packets the latest 10 day(s).
| Time | Temp. | Humidity | Pressure | Rain* | Wind** | Luminosity | Snow |
|---|---|---|---|---|---|---|---|
| 1777472583 | 15° C | 79% | 1014 hPa | 0 mm | - | 27 W/m² | - |
| 1777472280 | 15° C | 79% | 1013.7 hPa | 0 mm | - | 41 W/m² | - |
| 1777471976 | 15° C | 80% | 1013.6 hPa | 0 mm | - | 44 W/m² | - |
| 1777471673 | 15° C | 81% | 1013.2 hPa | 0 mm | - | 45 W/m² | - |
| 1777471369 | 15° C | 80% | 1013.1 hPa | 0 mm | - | 42 W/m² | - |
| 1777471066 | 15° C | 80% | 1013.2 hPa | 0 mm | - | 42 W/m² | - |
| 1777470762 | 15° C | 80% | 1013.1 hPa | 0 mm | - | 43 W/m² | - |
| 1777470459 | 15° C | 80% | 1013 hPa | 0 mm | - | 41 W/m² | - |
| 1777470155 | 15° C | 80% | 1013.1 hPa | 0 mm | - | 35 W/m² | - |
| 1777469852 | 15° C | 80% | 1013.1 hPa | 0 mm | - | 31 W/m² | - |
| 1777469548 | 15° C | 80% | 1013 hPa | 0 mm | - | 29 W/m² | - |
| 1777469248 | 15° C | 80% | 1012.9 hPa | 0 mm | - | 22 W/m² | - |
| 1777468942 | 15° C | 80% | 1012.8 hPa | 0 mm | - | 23 W/m² | - |
| 1777468639 | 15° C | 80% | 1012.7 hPa | 0 mm | - | 25 W/m² | - |
| 1777468336 | 15° C | 79% | 1012.7 hPa | 0 mm | - | 29 W/m² | - |
| 1777468032 | 15° C | 80% | 1012.6 hPa | 0 mm | - | 24 W/m² | - |
| 1777467728 | 15° C | 80% | 1012.8 hPa | 0 mm | - | 27 W/m² | - |
| 1777467423 | 15° C | 80% | 1012.9 hPa | 0 mm | - | 18 W/m² | - |
| 1777467119 | 15° C | 80% | 1012.7 hPa | 0 mm | - | 11 W/m² | - |
| 1777466816 | 15° C | 79% | 1012.7 hPa | 0 mm | - | 11 W/m² | - |
| 1777466515 | 15° C | 79% | 1012.8 hPa | 0 mm | - | 14 W/m² | - |
| 1777466210 | 15° C | 79% | 1012.3 hPa | 0 mm | - | 9 W/m² | - |
| 1777465906 | 15° C | 80% | 1012.7 hPa | 0 mm | - | 13 W/m² | - |
| 1777465603 | 15° C | 80% | 1012.7 hPa | 0 mm | - | 8 W/m² | - |
| 1777465298 | 15° C | 79% | 1012.5 hPa | 0 mm | - | 5 W/m² | - |
* Rain latest hour (hover to see other rain measurements)
** Current wind speed in m/s (hover to see current wind gust speed)